Weather History for Lambertville, MI

Change the Weather History Date:

Friday, October 18, 2013

  Actual Average (KTOL) Record (KTOL)
Temperature  
Mean Temperature 54 °F 52 °F  
Max Temperature 66 °F 62 °F 83 °F (1950)
Min Temperature 41 °F 41 °F 17 °F (1976)
Degree Days  
Heating Degree Days 12 14  
Month to date heating degree days 199  
Since 1 July heating degree days 323  
Cooling Degree Days 0 0  
Month to date cooling degree days 8  
Year to date cooling degree days 792  
Growing Degree Days 4 (Base 50)    
Moisture  
Dew Point 41 °F    
Average Humidity 69    
Maximum Humidity 87    
Minimum Humidity 37    
Precipitation  
Precipitation 0.00 in 0.08 in 0.71 in (1985)
Month to date precipitation 1.54  
Year to date precipitation 27.64  
Snow  
Snow 0.00 in 0.00 in - ()
Month to date snowfall 0.1  
Since 1 July snowfall 0.1  
Since 1 September snowfall 0.1  
Snow Depth -    
Sea Level Pressure  
Sea Level Pressure 29.91 in    
Wind  
Wind Speed 6 mph (SW)    
Max Wind Speed 15 mph    
Max Gust Speed 21 mph    
Visibility 9 miles    
Events      
T = Trace of Precipitation, MM = Missing Value Source: NWS Daily Summary

Daily Weather History Graph

Daily Weather History Graph

Search for Another Location

Airport:

Trip Planner

Search our weather history database for the weather conditions in past years. The results will help you decide how hot, cold, wet, or windy it might be!

Date:

Astronomy

Oct. 18, 2013 Rise Set
Actual Time 7:50 AM EDT 6:48 PM EDT
Civil Twilight 7:22 AM EDT 7:16 PM EDT
Nautical Twilight 6:50 AM EDT 7:48 PM EDT
Astronomical Twilight 6:17 AM EDT 8:20 PM EDT
Moon 6:37 PM EDT (10/18) 7:24 AM EDT (10/18)
Length of Visible Light 11h 54m
Length of Day
10h 57m
Full, 100% of the Moon is Illuminated
Oct 18
Full
Oct 18
Full
Oct 26
Last Quarter
Nov 3
New
Nov 10
First Quarter

Hourly Weather History & Observations

Time (EDT) Temp. Windchill Dew Point Humidity Pressure Visibility Wind Dir Wind Speed Gust Speed Precip Events Conditions
12:15 AM 50.0 °F - 44.6 °F 82% 29.88 in 10.0 mi West 8.1 mph - N/A   Overcast
12:35 AM 50.0 °F - 42.8 °F 76% 29.88 in 10.0 mi WSW 5.8 mph - N/A   Overcast
12:55 AM 50.0 °F - 42.8 °F 76% 29.88 in 10.0 mi WSW 4.6 mph - N/A   Overcast
1:15 AM 50.0 °F - 42.8 °F 76% 29.89 in 10.0 mi WSW 4.6 mph - N/A   Overcast
1:35 AM 50.0 °F - 42.8 °F 76% 29.89 in 10.0 mi WSW 4.6 mph - N/A   Overcast
1:55 AM 48.2 °F - 42.8 °F 82% 29.90 in 10.0 mi SW 6.9 mph - N/A   Overcast
2:15 AM 48.2 °F - 42.8 °F 82% 29.90 in 10.0 mi SW 6.9 mph - N/A   Scattered Clouds
2:35 AM 46.4 °F 43.5 °F 42.8 °F 87% 29.90 in 10.0 mi WSW 5.8 mph - N/A   Clear
2:55 AM 46.4 °F 43.5 °F 41.0 °F 81% 29.90 in 10.0 mi WSW 5.8 mph - N/A   Clear
3:15 AM 46.4 °F 42.4 °F 41.0 °F 81% 29.90 in 10.0 mi SW 8.1 mph - N/A   Clear
3:35 AM 44.6 °F 41.4 °F 41.0 °F 87% 29.90 in 10.0 mi SW 5.8 mph - N/A   Clear
3:55 AM 44.6 °F 40.7 °F 41.0 °F 87% 29.90 in 10.0 mi SW 6.9 mph - N/A   Clear
4:15 AM 44.6 °F 41.4 °F 41.0 °F 87% 29.90 in 10.0 mi SW 5.8 mph - N/A   Clear
4:35 AM 44.6 °F 41.4 °F 41.0 °F 87% 29.90 in 10.0 mi SW 5.8 mph - N/A   Clear
4:55 AM 44.6 °F 41.4 °F 41.0 °F 87% 29.91 in 10.0 mi SW 5.8 mph - N/A   Clear
5:15 AM 44.6 °F 42.2 °F 41.0 °F 87% 29.91 in 10.0 mi WSW 4.6 mph - N/A   Clear
5:35 AM 42.8 °F 41.1 °F 39.2 °F 87% 29.91 in 10.0 mi SW 3.5 mph - N/A   Clear
5:55 AM 42.8 °F 41.1 °F 39.2 °F 87% 29.91 in 7.0 mi SSW 3.5 mph - N/A   Clear
6:15 AM 42.8 °F 41.1 °F 39.2 °F 87% 29.91 in 7.0 mi SSW 3.5 mph - N/A   Clear
6:35 AM 41.0 °F 39.0 °F 37.4 °F 87% 29.91 in 7.0 mi SSW 3.5 mph - N/A   Clear
6:55 AM 41.0 °F 38.0 °F 37.4 °F 87% 29.91 in 7.0 mi SSW 4.6 mph - N/A   Clear
7:15 AM 41.0 °F 38.0 °F 37.4 °F 87% 29.92 in 7.0 mi SSW 4.6 mph - N/A   Clear
7:35 AM 41.0 °F 38.0 °F 37.4 °F 87% 29.92 in 7.0 mi SSW 4.6 mph - N/A   Clear
7:55 AM 41.0 °F 38.0 °F 37.4 °F 87% 29.92 in 5.0 mi SSW 4.6 mph - N/A   Clear
8:15 AM 41.0 °F 37.1 °F 37.4 °F 87% 29.92 in 5.0 mi SSW 5.8 mph - N/A   Clear
8:35 AM 42.8 °F 41.1 °F 39.2 °F 87% 29.93 in 5.0 mi SSW 3.5 mph - N/A   Clear
8:55 AM 42.8 °F 38.6 °F 39.2 °F 87% 29.93 in 7.0 mi SSW 6.9 mph - N/A   Clear
9:15 AM 44.6 °F 42.2 °F 41.0 °F 87% 29.93 in 7.0 mi SSW 4.6 mph - N/A   Clear
9:35 AM 46.4 °F 42.4 °F 41.0 °F 81% 29.93 in 10.0 mi SW 8.1 mph - N/A   Clear
9:55 AM 50.0 °F - 41.0 °F 71% 29.94 in 10.0 mi SW 5.8 mph - N/A   Clear
10:15 AM 51.8 °F - 41.0 °F 67% 29.94 in 10.0 mi SSW 6.9 mph - N/A   Clear
10:35 AM 51.8 °F - 42.8 °F 71% 29.94 in 10.0 mi WSW 5.8 mph - N/A   Clear
10:55 AM 53.6 °F - 42.8 °F 67% 29.94 in 10.0 mi WSW 9.2 mph - N/A   Clear
11:15 AM 53.6 °F - 42.8 °F 67% 29.94 in 10.0 mi SSW 8.1 mph - N/A   Clear
11:35 AM 55.4 °F - 42.8 °F 63% 29.94 in 10.0 mi SW 6.9 mph - N/A   Clear
11:55 AM 57.2 °F - 42.8 °F 59% 29.93 in 10.0 mi SSW 8.1 mph - N/A   Mostly Cloudy
12:15 PM 59.0 °F - 44.6 °F 59% 29.93 in 10.0 mi SW 5.8 mph - N/A   Mostly Cloudy
12:35 PM 60.8 °F - 44.6 °F 55% 29.93 in 10.0 mi SSW 8.1 mph - N/A   Scattered Clouds
12:55 PM 60.8 °F - 42.8 °F 52% 29.92 in 10.0 mi SSW 9.2 mph - N/A   Clear
1:15 PM 62.6 °F - 42.8 °F 48% 29.91 in 10.0 mi South 5.8 mph - N/A   Clear
1:35 PM 62.6 °F - 42.8 °F 48% 29.90 in 10.0 mi SSW 10.4 mph 16.1 mph N/A   Clear
1:55 PM 62.6 °F - 41.0 °F 45% 29.89 in 10.0 mi SSW 8.1 mph - N/A   Clear
2:15 PM 64.4 °F - 41.0 °F 42% 29.89 in 10.0 mi WSW 12.7 mph 16.1 mph N/A   Clear
2:35 PM 64.4 °F - 41.0 °F 42% 29.88 in 10.0 mi SW 11.5 mph 19.6 mph N/A   Clear
2:55 PM 64.4 °F - 42.8 °F 45% 29.88 in 10.0 mi SSW 15.0 mph 20.7 mph N/A   Scattered Clouds
3:15 PM 62.6 °F - 42.8 °F 48% 29.87 in 10.0 mi SW 9.2 mph - N/A   Scattered Clouds
3:35 PM 64.4 °F - 42.8 °F 45% 29.87 in 10.0 mi WSW 9.2 mph 18.4 mph N/A   Mostly Cloudy
3:55 PM 66.2 °F - 41.0 °F 40% 29.87 in 10.0 mi WSW 13.8 mph 20.7 mph N/A   Mostly Cloudy
4:15 PM 62.6 °F - 39.2 °F 42% 29.87 in 10.0 mi WSW 10.4 mph - N/A   Mostly Cloudy
4:35 PM 64.4 °F - 37.4 °F 37% 29.87 in 10.0 mi SW 12.7 mph 19.6 mph N/A   Scattered Clouds
4:55 PM 64.4 °F - 37.4 °F 37% 29.87 in 10.0 mi West 9.2 mph 16.1 mph N/A   Scattered Clouds
5:15 PM 62.6 °F - 37.4 °F 39% 29.87 in 10.0 mi WSW 8.1 mph - N/A   Clear
5:35 PM 62.6 °F - 37.4 °F 39% 29.87 in 10.0 mi WSW 8.1 mph 17.3 mph N/A   Scattered Clouds
5:55 PM 62.6 °F - 37.4 °F 39% 29.87 in 10.0 mi West 8.1 mph - N/A   Scattered Clouds
6:15 PM 60.8 °F - 37.4 °F 42% 29.87 in 10.0 mi WSW 5.8 mph - N/A   Clear
6:35 PM 59.0 °F - 39.2 °F 48% 29.88 in 10.0 mi Calm Calm - N/A   Scattered Clouds
6:55 PM 55.4 °F - 41.0 °F 58% 29.88 in 10.0 mi Calm Calm - N/A   Scattered Clouds
7:15 PM 53.6 °F - 42.8 °F 67% 29.89 in 10.0 mi Calm Calm - N/A   Scattered Clouds
7:35 PM 50.0 °F - 42.8 °F 76% 29.89 in 10.0 mi SW 3.5 mph - N/A   Scattered Clouds
7:55 PM 50.0 °F - 42.8 °F 76% 29.90 in 10.0 mi WSW 3.5 mph - N/A   Scattered Clouds
8:15 PM 53.6 °F - 41.0 °F 62% 29.90 in 10.0 mi WSW 4.6 mph - N/A   Clear
8:35 PM 53.6 °F - 41.0 °F 62% 29.90 in 10.0 mi WSW 3.5 mph - N/A   Clear
8:55 PM 53.6 °F - 41.0 °F 62% 29.90 in 10.0 mi West 3.5 mph - N/A   Clear
9:15 PM 51.8 °F - 41.0 °F 67% 29.91 in 10.0 mi Calm Calm - N/A   Clear
9:35 PM 51.8 °F - 41.0 °F 67% 29.92 in 10.0 mi West 3.5 mph - N/A   Clear
9:55 PM 51.8 °F - 41.0 °F 67% 29.93 in 10.0 mi West 10.4 mph - N/A   Clear
10:15 PM 50.0 °F - 42.8 °F 76% 29.93 in 10.0 mi WNW 4.6 mph - N/A   Clear
10:35 PM 50.0 °F - 42.8 °F 76% 29.93 in 7.0 mi WNW 4.6 mph - N/A   Clear
10:55 PM 48.2 °F - 42.8 °F 82% 29.93 in 7.0 mi West 3.5 mph - N/A   Clear
11:15 PM 48.2 °F - 41.0 °F 76% 29.93 in 10.0 mi West 5.8 mph - N/A   Clear
11:35 PM 46.4 °F 43.5 °F 41.0 °F 81% 29.93 in 10.0 mi West 5.8 mph - N/A   Clear
11:55 PM 46.4 °F 45.2 °F 41.0 °F 81% 29.94 in 7.0 mi WSW 3.5 mph - N/A   Clear